Find Starlink 32547

NORAD ID: 61919 Int'l Des: 2024-207 Owner: SPXS Country: US Constellation: starlink operational
LEOCIRCULAR

Current View

Loading 3D Globe...

About Starlink 32547

Description loading...

Upcoming Passes

Passes for default location (London). Set your location on the main map for personalized predictions.

Altitude History

Loading altitude history...

Two-Line Element Set

1 61919U 24207H 26146.15223833 .00020788 00000-0 76228-3 0 9990
2 61919 42.9995 203.8768 0002487 285.1022 74.9555 15.27601514 86563
Epoch: May 26, 2026 • Age: 9 hours

Current Status

Altitude 484.1 km
Velocity 7.62 km/s
Sub-Earth Point -12.23°S, 109.34°E
Launch Date Nov 11, 2024
Age 1.5 years
Type internet

Technical Details

Classification Payload
Mass 730.00 kg
Dry Mass 700.00 kg
Total Mass 730.00 kg
Length 0.30 m
Diameter 4.10 m
Span 29.00 m
Shape Box + pan
Manufacturer SPXS
Bus Type Starlink V2M
Phase Status In Orbit
Owner/State SPXS/US

Most Searched